Temp
4 4 4 4 4 4 4 4 4 4 4 4 4 4 4 4 4 4 4 4 4 4 4 4 5 4 4 4 4 4 4 5 5 5 5 5 5 5 5 5 5 5 6 6 6 5 5 5 5 5 5 5 5 5 6 6 6 6 6 6 5 5 5 5 5 5 5 5 5
5 5 5 5 5 5 5 5 5 5 5 5 5 5 5 5 5 5 4 4 4 5 5 5 5 5 5 5 5 5 5 5 5 5 5 6 6 6 6 6 6 6 6 6 6 6 6 5 5 5 5 5 5 5 6 5 5 5 5 5 5 5 5 5 5 5 5 5 5
5 5 5 5 5 5 5 5 5 5 5 5 5 5 5 5 5 5 5 5 5 5 5 5 5 5 5 5 5 5 5 5 6 6 6 6 6 6 6 6 6 6 6 6 6 6 6 6 5 5 5 5 5 5 6 5 5 5 5 5 5 5 4 4 4 4 4 4 4
5 5 5 5 5 5 5 5 5 5 5 5 5 5 5 5 5 5 5 5 5 5 5 5 5 6 6 6 6 6 6 6 6 6 6 6 6 6 6 6 6 6 6 6 6 6 6 6 6 5 5 5 5 5 6 5 5 5 5 5 4 4 4 4 4 4 4 3 3
5 5 5 5 5 5 5 5 5 5 5 5 5 5 5 5 5 5 5 5 5 5 5 6 6 6 6 6 6 6 6 6 6 6 6 6 6 6 6 6 6 6 6 6 6 6 6 6 6 6 5 5 5 5 5 5 5 5 4 4 4 4 4 4 3 3 3 3 3
6 5 5 5 5 5 5 5 5 5 5 5 5 5 5 5 5 5 5 5 5 6 6 6 6 6 6 6 6 6 6 6 6 6 6 6 6 6 6 6 6 6 6 6 6 6 6 6 6 6 5 5 5 5 5 5 5 5 4 4 4 4 4 4 4 3 3 3 3
5 5 5 5 5 5 5 5 5 5 5 5 5 5 5 5 5 5 5 5 5 6 6 6 6 6 6 6 6 6 5 5 5 5 5 5 5 5 5 5 5 5 5 5 5 5 5 5 5 5 5 5 5 5 5 5 5 5 4 4 4 4 4 4 4 4 4 4 3
5 5 5 5 5 5 5 5 5 5 5 5 5 5 5 5 5 5 5 5 5 5 5 5 5 5 5 5 5 5 5 5 5 5 5 5 5 5 5 5 5 5 5 5 5 5 5 5 5 5 5 5 5 5 5 5 5 5 5 4 4 4 4 4 4 4 4 4 4
5 5 5 5 5 5 5 5 5 5 5 5 5 5 5 5 5 5 5 5 5 5 5 5 5 5 5 5 5 5 5 5 5 5 5 5 4 4 4 4 4 4 4 4 4 4 4 4 4 4 4 4 4 4 4 4 4 4 4 4 5 4 4 4 4 5 5 5 5
4 4 4 4 5 5 5 5 5 5 5 5 5 5 5 5 5 5 5 5 5 5 5 5 5 5 5 5 4 4 4 4 4 4 4 4 4 4 4 4 4 4 4 4 4 4 4 4 4 4 4 4 4 4 4 4 4 4 4 4 4 4 4 4 4 4 5 5 5
4 4 4 4 4 4 4 4 4 4 4 4 4 4 5 5 5 5 5 4 4 4 4 4 4 4 4 4 4 4 4 4 4 4 4 4 4 4 4 4 4 4 4 4 4 4 4 4 4 4 4 4 4 4 4 4 4 4 4 4 4 4 4 4 4 4 4 4 4
4 4 4 4 4 4 4 4 4 4 4 4 4 4 4 4 4 4 4 4 4 4 4 4 4 4 4 4 4 4 4 4 3 3 3 3 3 3 3 3 3 3 3 3 3 3 4 4 4 4 4 4 4 4 4 4 4 4 4 4 4 4 4 4 4 4 4 4 4
4 4 4 4 4 4 4 4 4 4 4 4 4 4 4 4 4 4 4 4 3 3 3 3 3 3 3 3 3 3 3 3 3 3 3 3 3 3 3 3 3 3 3 3 3 3 3 3 3 3 3 3 3 3 3 3 3 3 4 4 4 4 4 4 4 4 4 4 4
4 4 4 4 4 4 3 3 3 3 3 4 4 4 3 3 3 3 3 3 3 3 3 3 3 3 3 3 3 3 3 3 3 3 3 3 3 3 3 3 3 3 3 3 3 3 3 3 3 3 3 3 3 3 3 3 3 3 3 4 4 4 4 4 4 3 3 4 4
4 4 4 4 3 3 3 3 3 3 3 3 3 3 3 3 3 3 3 3 3 3 3 3 2 2 2 2 2 2 2 2 2 2 2 2 2 2 3 3 3 3 3 3 3 2 2 2 2 2 2 2 2 2 2 3 3 3 3 3 3 4 4 3 3 3 3 3 3
3 3 3 3 3 3 3 3 3 3 3 3 3 3 3 3 3 3 3 3 2 2 2 2 2 2 2 2 2 2 2 2 2 2 2 2 2 2 2 2 2 2 2 2 2 2 2 2 2 2 2 2 2 2 2 2 2 3 3 3 3 3 3 3 3 2 2 2 2
3 3 3 3 3 3 3 3 3 3 3 3 3 3 2 2 2 2 2 2 2 2 2 2 2 2 2 2 2 2 2 2 2 2 2 2 2 2 2 2 2 2 2 2 2 2 2 2 2 2 2 2 2 2 2 2 2 2 2 2 2 2 2 2 2 2 2 2 2
3 3 3 3 3 3 3 3 3 3 3 2 2 2 2 2 2 2 2 2 2 2 2 2 2 2 2 2 2 2 2 2 2 2 2 2 2 2 2 2 2 2 2 2 2 2 2 1 1 1 1 1 1 1 1 2 2 2 2 2 2 2 2 2 1 1 1 1 1
3 3 3 3 3 3 3 3 2 2 2 2 2 2 2 2 2 2 2 2 2 2 2 2 2 2 2 2 2 2 1 1 1 1 1 1 1 1 1 1 1 1 1 1 1 1 1 1 1 1 1 1 1 1 1 1 1 1 1 1 1 1 1 1 1 1 1 0 0
3 3 3 3 3 3 2 2 2 2 2 2 2 2 2 2 2 2 2 2 2 2 2 2 2 2 2 1 1 1 1 1 1 1 1 1 1 1 1 1 1 1 1 1 1 1 1 1 1 1 1 1 1 1 1 1 1 1 1 1 1 1 1 1 1 0 0 -0 -0
2 2 2 2 2 2 2 2 3 3 3 2 2 2 2 2 2 2 2 2 2 2 2 2 2 2 1 1 1 1 1 1 1 1 1 1 1 1 1 1 1 1 1 1 1 1 0 0 0 0 0 0 0 0 0 0 0 0 1 1 1 1 0 0 0 -0 -0 -1 -1
2 2 2 2 2 2 2 2 3 3 3 2 2 2 2 2 2 2 2 2 2 2 1 1 1 1 1 1 1 1 1 1 1 1 1 1 1 1 1 1 1 1 1 0 0 0 0 0 0 -0 -0 -0 -1 -1 -1 -1 -0 -0 -0 -0 -0 -0 -0 -0 -0 -1 -1 -1 -1
2 2 2 2 2 2 2 2 2 2 2 2 2 2 2 2 2 1 1 1 1 1 1 1 1 1 1 1 1 1 1 1 1 0 0 0 0 0 0 0 0 0 0 0 0 0 0 -0 -0 -1 -1 -2 -2 -2 -2 -2 -1 -1 -1 -1 -1 -1 -1 -1 -1 -1 -2 -2 -2
2 2 2 2 2 2 2 2 2 2 2 2 2 2 2 2 1 1 1 1 1 1 1 1 1 1 1 1 1 1 1 1 1 0 0 0 0 0 0 0 0 0 0 0 -0 -0 -1 -1 -1 -2 -2 -3 -3 -3 -3 -3 -3 -2 -2 -2 -2 -2 -2 -2 -2 -2 -2 -2 -2
2 2 2 2 2 2 2 2 2 2 2 2 2 2 1 1 1 1 1 1 1 1 1 1 1 1 1 1 1 0 0 0 0 0 0 0 0 0 0 0 0 0 0 -0 -0 -1 -1 -2 -2 -3 -4 -4 -4 -4 -4 -4 -3 -3 -3 -3 -3 -3 -2 -2 -2 -2 -2 -2 -3
1 1 1 1 2 2 2 2 2 2 2 2 1 1 1 1 1 1 1 1 1 1 1 1 1 1 1 1 1 0 0 0 0 0 0 0 0 0 0 -0 -0 -0 -0 -0 -1 -1 -2 -2 -3 -4 -4 -5 -5 -5 -4 -4 -4 -4 -4 -4 -4 -3 -3 -3 -3 -3 -3 -3 -3
1 1 1 1 1 1 2 2 2 2 1 1 1 1 1 1 1 1 1 1 1 1 1 1 1 1 1 1 1 1 0 0 0 0 0 0 0 0 -0 -0 -0 -0 -1 -1 -1 -2 -2 -2 -3 -4 -5 -5 -5 -5 -5 -5 -5 -4 -4 -4 -4 -4 -4 -4 -4 -4 -4 -4 -4
1 1 1 1 1 1 1 1 1 1 1 1 1 1 1 1 1 1 1 1 1 1 1 1 1 1 1 1 1 0 0 0 0 0 0 0 0 -0 -0 -0 -1 -1 -1 -1 -2 -2 -2 -2 -3 -3 -4 -5 -5 -5 -5 -5 -5 -5 -5 -4 -4 -4 -4 -4 -5 -5 -5 -5 -4
1 1 1 1 1 1 1 1 1 1 1 1 1 1 1 1 1 1 1 1 1 1 1 1 1 1 1 1 1 0 0 0 0 0 0 -0 -0 -0 -1 -1 -1 -1 -2 -2 -2 -2 -2 -3 -3 -3 -4 -5 -5 -6 -6 -5 -5 -5 -5 -4 -4 -4 -5 -5 -5 -5 -5 -5 -5
0 1 1 1 1 1 1 1 1 1 1 1 1 1 1 1 1 1 1 1 1 1 0 0 0 0 0 0 0 0 0 -0 -0 -0 -0 -0 -0 -1 -1 -1 -2 -2 -2 -2 -2 -2 -3 -3 -3 -4 -4 -5 -6 -6 -5 -5 -5 -5 -4 -4 -4 -5 -5 -5 -5 -5 -5 -5 -5
0 0 0 0 1 1 1 1 1 1 1 1 0 0 0 1 1 1 0 0 0 0 0 0 0 0 0 0 0 -0 -0 -0 -0 -1 -1 -1 -1 -1 -2 -2 -2 -2 -2 -2 -2 -2 -3 -3 -3 -4 -5 -5 -6 -6 -5 -5 -5 -4 -4 -4 -5 -5 -5 -5 -5 -5 -5 -5 -5
0 0 0 0 0 0 1 1 1 0 0 0 0 0 0 0 0 0 0 0 0 0 0 0 0 0 -0 -0 -0 -0 -1 -1 -1 -1 -1 -1 -1 -2 -2 -2 -2 -2 -2 -2 -2 -3 -3 -3 -4 -4 -5 -6 -6 -5 -5 -4 -4 -4 -4 -5 -5 -5 -5 -5 -5 -5 -5 -5 -5
-0 -0 0 0 0 0 0 0 0 0 0 0 0 0 0 0 0 0 0 -0 -0 -0 -0 -0 -0 -0 -0 -0 -1 -1 -1 -1 -1 -1 -2 -2 -2 -2 -2 -2 -2 -2 -2 -2 -2 -3 -3 -3 -4 -4 -5 -6 -5 -5 -4 -4 -4 -4 -4 -5 -5 -5 -5 -5 -5 -5 -5 -5 -5
-0 -0 -0 0 0 0 0 0 0 0 0 -0 -0 -0 -0 -0 -0 -0 -0 -0 -0 -0 -0 -1 -1 -1 -1 -1 -1 -1 -1 -1 -2 -2 -2 -2 -2 -2 -2 -2 -2 -2 -2 -2 -3 -3 -3 -4 -4 -5 -5 -6 -5 -5 -4 -4 -4 -5 -5 -5 -5 -5 -5 -5 -5 -5 -5 -5 -5
-0 -0 -0 -0 0 0 0 0 0 -0 -0 -0 -0 -0 -0 -0 -0 -0 -0 -0 -1 -1 -1 -1 -1 -1 -1 -1 -2 -2 -2 -2 -2 -2 -2 -2 -2 -2 -2 -2 -2 -2 -2 -3 -3 -3 -3 -4 -4 -5 -5 -5 -5 -5 -5 -5 -5 -5 -5 -5 -5 -5 -5 -5 -5 -5 -5 -5 -6
-0 -0 -0 -0 -0 0 0 0 -0 -0 -0 -0 -0 -0 -0 -1 -1 -1 -1 -1 -1 -1 -1 -1 -1 -1 -2 -2 -2 -2 -2 -2 -2 -2 -2 -2 -2 -2 -2 -2 -2 -2 -3 -3 -3 -3 -3 -4 -4 -5 -6 -6 -5 -5 -5 -6 -6 -6 -6 -6 -6 -6 -6 -6 -5 -5 -5 -5 -6
-0 -0 -0 -0 -0 -0 -0 -0 -0 -0 -0 -0 -1 -1 -1 -1 -1 -1 -1 -1 -1 -1 -1 -1 -2 -2 -2 -2 -2 -2 -2 -2 -2 -2 -2 -2 -2 -2 -2 -2 -2 -3 -3 -3 -3 -3 -3 -4 -4 -5 -6 -6 -6 -6 -6 -6 -6 -6 -6 -6 -6 -6 -6 -6 -6 -6 -5 -5 -6
-0 -0 -0 -0 -0 -0 -0 -0 -0 -1 -1 -1 -1 -1 -1 -1 -1 -1 -1 -1 -1 -1 -2 -2 -2 -2 -2 -2 -2 -2 -3 -3 -2 -2 -2 -2 -2 -2 -2 -2 -2 -3 -3 -3 -3 -3 -3 -4 -4 -5 -6 -7 -7 -7 -7 -7 -7 -7 -7 -7 -7 -7 -6 -6 -6 -6 -5 -5 -5
-1 -1 -1 -0 -0 -0 -0 -1 -1 -1 -1 -1 -1 -1 -1 -1 -2 -2 -2 -2 -2 -2 -2 -2 -2 -2 -2 -2 -2 -2 -3 -3 -3 -3 -2 -2 -3 -3 -2 -2 -2 -3 -3 -3 -3 -3 -3 -4 -5 -6 -7 -7 -8 -8 -8 -8 -8 -8 -8 -8 -8 -7 -7 -7 -6 -6 -6 -5 -5
-1 -1 -1 -1 -1 -1 -1 -1 -1 -1 -1 -1 -1 -2 -2 -2 -2 -2 -2 -2 -2 -2 -2 -2 -2 -2 -2 -2 -2 -2 -3 -3 -3 -3 -3 -3 -3 -3 -3 -3 -3 -3 -3 -3 -3 -3 -3 -4 -5 -6 -7 -8 -8 -9 -8 -8 -9 -9 -8 -8 -8 -8 -8 -7 -7 -6 -6 -6 -5
-1 -1 -1 -1 -1 -1 -1 -1 -1 -1 -2 -2 -2 -2 -2 -2 -2 -2 -2 -2 -2 -2 -2 -3 -3 -3 -3 -3 -2 -2 -2 -3 -3 -3 -3 -3 -3 -3 -3 -3 -3 -3 -3 -3 -3 -3 -4 -4 -5 -6 -8 -9 -9 -9 -9 -9 -9 -9 -9 -8 -9 -9 -8 -8 -7 -6 -6 -6 -6
Height
1501 1500 1500 1499 1499 1498 1497 1496 1496 1495 1494 1494 1493 1493 1492 1492 1491 1491 1490 1490 1489 1489 1488 1488 1487 1487 1486 1486 1485 1484 1484 1483 1483 1483 1482 1481 1481 1480 1480 1479 1479 1478 1478 1478 1477 1477 1476 1476 1475 1475 1475 1474 1473 1473 1473 1472 1472 1472 1472 1471 1471 1471 1471 1470 1470 1470 1469 1469 1469
1501 1500 1500 1499 1498 1498 1497 1496 1496 1495 1494 1494 1493 1493 1492 1492 1491 1491 1490 1490 1489 1489 1488 1488 1487 1486 1486 1485 1484 1484 1483 1483 1482 1482 1481 1481 1480 1480 1479 1479 1478 1478 1477 1477 1476 1476 1475 1475 1474 1474 1473 1473 1472 1472 1471 1471 1471 1470 1470 1470 1469 1469 1469 1468 1468 1468 1467 1467 1467
1501 1500 1499 1499 1498 1498 1497 1496 1496 1495 1494 1494 1493 1493 1492 1491 1491 1490 1490 1489 1489 1488 1488 1487 1487 1486 1485 1485 1484 1483 1483 1482 1482 1481 1481 1480 1480 1479 1479 1478 1478 1477 1477 1476 1475 1475 1474 1473 1473 1473 1472 1472 1471 1470 1470 1470 1469 1469 1468 1468 1468 1467 1467 1467 1466 1466 1465 1465 1465
1500 1500 1499 1498 1498 1497 1497 1496 1495 1494 1494 1493 1493 1492 1491 1491 1490 1490 1489 1489 1488 1488 1487 1487 1486 1485 1485 1484 1484 1483 1483 1482 1482 1481 1480 1480 1479 1479 1478 1478 1477 1476 1476 1475 1474 1474 1473 1473 1472 1471 1471 1470 1470 1469 1468 1468 1468 1468 1467 1467 1466 1466 1465 1465 1464 1464 1464 1463 1463
1500 1499 1498 1498 1497 1497 1496 1495 1494 1494 1493 1493 1492 1491 1491 1490 1490 1489 1489 1488 1488 1487 1487 1486 1485 1485 1484 1484 1483 1483 1483 1482 1481 1481 1480 1479 1479 1478 1478 1477 1476 1475 1475 1474 1473 1473 1472 1471 1471 1470 1470 1469 1468 1468 1467 1467 1467 1466 1466 1465 1465 1464 1464 1463 1463 1463 1462 1462 1462
1499 1498 1498 1497 1496 1496 1495 1494 1494 1493 1493 1492 1491 1491 1490 1490 1489 1489 1488 1488 1487 1487 1486 1486 1485 1484 1484 1483 1483 1483 1482 1481 1481 1480 1479 1479 1478 1478 1477 1476 1475 1475 1474 1473 1473 1472 1471 1471 1470 1469 1468 1468 1467 1467 1466 1466 1465 1465 1464 1464 1463 1463 1462 1462 1461 1461 1461 1460 1460
1498 1498 1497 1496 1496 1495 1494 1494 1493 1493 1492 1491 1491 1490 1490 1489 1489 1488 1488 1487 1487 1486 1486 1485 1485 1484 1483 1483 1482 1482 1481 1481 1480 1479 1479 1478 1477 1477 1476 1475 1475 1474 1473 1473 1472 1471 1471 1470 1469 1468 1468 1467 1467 1466 1465 1465 1464 1464 1463 1463 1462 1461 1461 1460 1460 1459 1459 1459 1458
1497 1497 1496 1495 1495 1494 1494 1493 1493 1492 1492 1491 1491 1490 1490 1489 1489 1488 1488 1487 1487 1486 1486 1485 1484 1484 1483 1483 1482 1481 1481 1480 1479 1479 1478 1477 1477 1476 1475 1474 1474 1473 1473 1472 1471 1470 1470 1469 1468 1468 1467 1466 1466 1465 1464 1464 1463 1463 1462 1461 1461 1460 1459 1459 1458 1458 1457 1457 1457
1497 1496 1496 1495 1495 1494 1494 1493 1493 1492 1492 1491 1491 1490 1490 1489 1489 1488 1488 1487 1487 1486 1485 1485 1484 1484 1483 1482 1482 1481 1480 1479 1478 1478 1477 1477 1476 1475 1474 1473 1473 1472 1472 1471 1470 1470 1469 1468 1468 1467 1466 1465 1464 1464 1463 1463 1462 1462 1461 1460 1459 1459 1458 1458 1457 1456 1456 1455 1455
1496 1496 1495 1495 1495 1494 1494 1493 1493 1492 1492 1491 1491 1490 1490 1489 1489 1488 1488 1487 1487 1486 1485 1485 1484 1483 1483 1482 1481 1480 1479 1479 1478 1477 1477 1476 1475 1474 1473 1473 1472 1471 1471 1470 1469 1468 1468 1467 1467 1466 1465 1464 1464 1463 1462 1462 1461 1460 1460 1459 1458 1458 1457 1456 1455 1455 1454 1453 1453
1496 1496 1495 1495 1495 1494 1494 1493 1493 1492 1492 1491 1491 1490 1490 1489 1489 1488 1488 1487 1486 1486 1485 1484 1483 1483 1482 1481 1480 1479 1479 1478 1477 1476 1476 1475 1474 1473 1473 1472 1471 1470 1470 1469 1468 1468 1467 1466 1465 1465 1464 1463 1463 1462 1461 1460 1460 1459 1458 1458 1457 1456 1455 1455 1454 1453 1453 1452 1451
1496 1496 1495 1495 1494 1494 1493 1493 1493 1492 1492 1491 1491 1490 1489 1489 1488 1488 1487 1487 1486 1485 1484 1483 1483 1482 1481 1480 1479 1479 1478 1477 1476 1476 1475 1474 1473 1473 1472 1471 1470 1469 1469 1468 1467 1467 1466 1465 1464 1464 1463 1462 1461 1461 1460 1459 1458 1458 1457 1456 1455 1455 1454 1453 1452 1452 1451 1450 1449
1496 1496 1495 1495 1494 1493 1493 1493 1492 1492 1491 1491 1490 1490 1489 1488 1488 1487 1487 1486 1485 1484 1483 1483 1482 1481 1480 1479 1478 1478 1477 1476 1475 1475 1474 1473 1473 1472 1471 1470 1469 1469 1468 1467 1466 1466 1465 1464 1463 1463 1462 1461 1460 1459 1458 1458 1457 1456 1455 1455 1454 1453 1452 1452 1451 1450 1449 1448 1447
1496 1495 1495 1494 1494 1493 1493 1492 1492 1491 1491 1490 1490 1489 1488 1488 1487 1486 1485 1485 1484 1483 1483 1482 1481 1480 1479 1478 1478 1477 1476 1475 1474 1474 1473 1472 1472 1471 1470 1469 1468 1468 1467 1466 1465 1464 1463 1463 1462 1461 1460 1459 1458 1458 1457 1456 1455 1454 1454 1453 1452 1451 1450 1449 1448 1448 1447 1446 1445
1495 1495 1494 1494 1493 1493 1492 1492 1491 1491 1490 1489 1489 1488 1488 1487 1486 1485 1484 1484 1483 1482 1482 1481 1480 1479 1478 1478 1477 1476 1475 1474 1473 1473 1472 1471 1470 1470 1469 1468 1467 1467 1466 1465 1464 1463 1462 1461 1460 1459 1459 1458 1457 1456 1455 1454 1454 1453 1452 1451 1450 1449 1448 1447 1446 1445 1444 1443 1443
1495 1495 1494 1493 1493 1492 1491 1491 1490 1490 1489 1488 1488 1487 1486 1486 1485 1484 1483 1483 1482 1482 1481 1480 1479 1478 1478 1477 1476 1475 1474 1473 1472 1472 1471 1470 1469 1468 1468 1467 1466 1465 1464 1463 1463 1462 1461 1460 1459 1458 1457 1456 1455 1454 1454 1453 1452 1451 1450 1449 1448 1447 1446 1445 1444 1443 1443 1442 1441
1494 1494 1493 1493 1492 1491 1490 1489 1489 1488 1488 1487 1486 1486 1485 1484 1484 1483 1483 1482 1481 1481 1480 1479 1478 1478 1477 1476 1475 1474 1473 1472 1472 1471 1470 1469 1468 1468 1467 1466 1465 1464 1463 1462 1461 1460 1459 1458 1458 1457 1456 1455 1454 1453 1452 1451 1450 1449 1449 1448 1447 1446 1445 1444 1443 1442 1441 1440 1439
1493 1493 1492 1491 1490 1490 1489 1488 1488 1487 1486 1486 1485 1485 1484 1483 1483 1483 1482 1481 1480 1480 1479 1478 1478 1477 1476 1475 1474 1473 1472 1472 1471 1470 1469 1468 1467 1466 1465 1464 1463 1463 1462 1461 1460 1459 1458 1457 1456 1455 1454 1453 1452 1451 1450 1449 1448 1448 1447 1446 1445 1444 1443 1442 1441 1440 1439 1438 1437
1492 1491 1490 1490 1489 1488 1488 1487 1487 1486 1485 1485 1484 1484 1483 1483 1482 1482 1481 1480 1479 1479 1478 1478 1477 1476 1475 1474 1473 1473 1472 1471 1470 1469 1468 1467 1466 1465 1464 1463 1462 1461 1460 1459 1458 1457 1456 1455 1454 1453 1453 1452 1451 1450 1449 1448 1447 1446 1445 1444 1443 1443 1442 1441 1440 1439 1438 1437 1436
1490 1490 1489 1489 1488 1488 1487 1486 1486 1485 1485 1484 1484 1483 1483 1482 1482 1481 1480 1479 1479 1478 1478 1477 1476 1475 1474 1473 1473 1472 1471 1470 1469 1468 1467 1466 1465 1464 1463 1462 1461 1460 1459 1458 1457 1456 1455 1454 1453 1452 1451 1450 1449 1448 1447 1446 1445 1445 1444 1443 1442 1441 1440 1439 1438 1438 1436 1435 1434
1489 1489 1488 1488 1487 1487 1486 1486 1485 1485 1484 1484 1483 1483 1482 1482 1481 1480 1480 1479 1478 1478 1477 1476 1475 1474 1473 1473 1472 1471 1470 1468 1468 1466 1465 1464 1463 1463 1462 1460 1459 1458 1458 1456 1455 1454 1453 1452 1451 1450 1449 1448 1447 1446 1445 1444 1444 1443 1442 1441 1440 1440 1439 1438 1437 1436 1435 1434 1433
1488 1488 1488 1487 1487 1486 1485 1485 1484 1484 1483 1483 1483 1482 1482 1481 1480 1480 1479 1478 1478 1477 1476 1475 1474 1473 1472 1471 1470 1469 1468 1468 1466 1465 1464 1463 1462 1461 1460 1459 1458 1457 1456 1455 1454 1453 1452 1451 1449 1448 1447 1446 1445 1445 1444 1443 1442 1441 1440 1439 1438 1438 1437 1436 1435 1434 1433 1432 1431
1488 1488 1487 1486 1486 1485 1485 1484 1483 1483 1483 1482 1482 1481 1481 1480 1480 1479 1478 1478 1477 1476 1475 1474 1473 1472 1471 1470 1469 1468 1467 1466 1465 1464 1463 1462 1461 1460 1459 1458 1457 1456 1454 1453 1452 1451 1450 1449 1448 1447 1446 1445 1444 1443 1442 1441 1440 1439 1438 1437 1436 1435 1435 1434 1433 1432 1431 1430 1429
1487 1487 1486 1485 1485 1484 1484 1483 1483 1483 1482 1482 1481 1481 1480 1479 1479 1478 1477 1477 1476 1475 1474 1473 1472 1471 1470 1469 1468 1467 1466 1465 1464 1463 1462 1461 1460 1459 1458 1457 1455 1454 1453 1452 1451 1450 1449 1448 1446 1445 1444 1443 1442 1441 1440 1439 1438 1437 1436 1435 1434 1433 1432 1431 1431 1430 1429 1428 1427
1487 1486 1485 1484 1484 1483 1483 1483 1482 1482 1481 1481 1480 1480 1479 1478 1478 1477 1476 1475 1474 1473 1473 1472 1471 1470 1469 1468 1467 1466 1465 1464 1463 1462 1461 1460 1459 1458 1457 1455 1454 1453 1452 1451 1450 1449 1448 1447 1445 1444 1443 1442 1441 1440 1438 1438 1437 1436 1434 1433 1432 1431 1429 1428 1428 1427 1426 1425 1424
1486 1485 1484 1483 1483 1483 1482 1482 1481 1481 1480 1480 1479 1479 1478 1478 1477 1476 1475 1474 1473 1473 1472 1471 1470 1469 1468 1467 1466 1465 1464 1463 1462 1461 1459 1458 1458 1456 1455 1454 1453 1452 1451 1450 1449 1448 1447 1446 1444 1443 1442 1441 1439 1438 1437 1436 1435 1434 1433 1432 1430 1429 1427 1426 1425 1424 1423 1423 1422
1485 1484 1483 1483 1482 1482 1481 1481 1480 1480 1479 1479 1478 1478 1477 1477 1476 1475 1474 1473 1473 1472 1471 1470 1469 1468 1467 1466 1465 1464 1463 1462 1461 1459 1458 1458 1456 1455 1454 1453 1452 1450 1449 1448 1447 1446 1445 1444 1443 1442 1441 1440 1438 1437 1435 1434 1433 1432 1431 1430 1428 1427 1426 1424 1423 1422 1421 1420 1419
1484 1483 1482 1482 1481 1481 1480 1480 1479 1479 1478 1478 1478 1477 1476 1476 1475 1474 1473 1472 1472 1471 1470 1469 1468 1467 1466 1465 1464 1463 1462 1461 1459 1458 1457 1456 1455 1454 1453 1451 1450 1449 1448 1447 1446 1445 1444 1443 1442 1441 1440 1438 1437 1435 1434 1433 1431 1430 1429 1428 1427 1425 1424 1422 1421 1420 1418 1418 1417
1483 1482 1481 1481 1480 1480 1479 1479 1478 1478 1478 1477 1477 1476 1475 1475 1474 1473 1472 1471 1471 1470 1468 1468 1467 1466 1465 1463 1463 1462 1460 1459 1458 1457 1456 1455 1453 1452 1451 1450 1449 1448 1447 1446 1444 1443 1442 1441 1440 1439 1438 1437 1436 1434 1433 1432 1430 1428 1427 1426 1425 1423 1422 1421 1419 1418 1417 1416 1414
1482 1481 1480 1480 1479 1479 1478 1478 1478 1477 1477 1476 1476 1475 1474 1473 1473 1472 1471 1470 1469 1468 1467 1466 1465 1464 1463 1462 1461 1460 1459 1458 1457 1456 1455 1453 1452 1451 1450 1448 1448 1447 1445 1444 1443 1442 1441 1440 1439 1438 1437 1436 1434 1433 1432 1430 1428 1427 1426 1424 1423 1422 1420 1419 1418 1416 1415 1414 1413
1480 1480 1479 1479 1478 1478 1478 1477 1477 1476 1476 1475 1475 1474 1473 1473 1472 1471 1470 1469 1468 1467 1466 1465 1464 1463 1462 1461 1460 1459 1458 1457 1455 1454 1453 1452 1451 1450 1448 1448 1446 1445 1444 1443 1442 1441 1439 1438 1437 1436 1435 1434 1433 1432 1430 1428 1427 1426 1424 1423 1421 1420 1419 1418 1416 1415 1413 1412 1411
1479 1479 1478 1478 1477 1477 1477 1476 1476 1475 1475 1474 1474 1473 1472 1471 1471 1470 1469 1468 1467 1466 1465 1464 1463 1462 1461 1460 1458 1458 1456 1455 1454 1453 1452 1451 1449 1448 1448 1446 1445 1444 1443 1442 1441 1439 1438 1437 1436 1435 1434 1433 1432 1430 1428 1427 1425 1424 1423 1421 1420 1418 1417 1416 1414 1413 1412 1410 1409
1478 1478 1477 1477 1477 1476 1476 1475 1475 1474 1474 1473 1473 1472 1471 1470 1469 1469 1468 1467 1466 1465 1464 1463 1462 1461 1459 1458 1457 1456 1455 1454 1453 1452 1451 1450 1448 1448 1446 1445 1444 1443 1442 1441 1439 1438 1437 1436 1435 1434 1433 1432 1430 1428 1427 1425 1424 1423 1421 1420 1418 1417 1416 1414 1413 1411 1410 1408 1407
1477 1477 1476 1476 1476 1475 1475 1474 1474 1473 1473 1472 1472 1471 1470 1469 1468 1468 1467 1466 1465 1464 1463 1462 1460 1459 1458 1457 1456 1455 1453 1453 1452 1451 1450 1449 1448 1447 1446 1444 1443 1442 1441 1439 1438 1437 1436 1434 1433 1432 1431 1430 1428 1426 1425 1423 1422 1421 1419 1418 1417 1415 1414 1413 1411 1410 1408 1407 1406
1476 1476 1475 1475 1475 1474 1474 1473 1473 1472 1472 1471 1470 1470 1469 1468 1467 1466 1465 1464 1464 1463 1462 1460 1459 1458 1457 1456 1455 1453 1453 1452 1451 1450 1449 1448 1447 1446 1445 1443 1442 1441 1440 1438 1437 1436 1434 1433 1432 1431 1430 1428 1426 1424 1423 1422 1420 1419 1418 1416 1415 1413 1412 1411 1409 1408 1407 1405 1404
1475 1475 1474 1474 1473 1473 1473 1472 1472 1471 1470 1470 1469 1468 1468 1467 1466 1465 1464 1463 1463 1462 1460 1459 1458 1457 1456 1455 1453 1453 1452 1451 1450 1448 1448 1447 1446 1445 1443 1442 1441 1440 1438 1438 1436 1435 1433 1432 1431 1429 1428 1426 1424 1423 1422 1420 1419 1417 1416 1414 1413 1412 1410 1409 1407 1406 1405 1403 1402
1474 1473 1473 1473 1472 1472 1471 1471 1470 1470 1469 1468 1468 1467 1466 1466 1465 1464 1463 1462 1461 1460 1459 1458 1457 1456 1455 1454 1453 1452 1451 1450 1448 1448 1447 1446 1445 1443 1443 1441 1440 1439 1438 1436 1435 1433 1432 1431 1429 1428 1427 1425 1423 1422 1420 1418 1417 1416 1414 1413 1411 1410 1408 1407 1405 1404 1403 1402 1400
1473 1472 1472 1472 1471 1471 1470 1469 1469 1468 1468 1467 1467 1466 1465 1464 1464 1463 1462 1461 1460 1459 1458 1457 1456 1455 1454 1453 1452 1451 1450 1448 1448 1447 1446 1444 1443 1442 1441 1440 1439 1438 1437 1435 1434 1433 1431 1430 1428 1427 1426 1423 1422 1420 1419 1418 1416 1414 1413 1411 1410 1408 1407 1405 1404 1402 1401 1400 1398
1471 1471 1471 1470 1470 1469 1469 1468 1468 1467 1467 1466 1465 1465 1464 1463 1463 1462 1461 1460 1459 1458 1457 1456 1455 1454 1453 1452 1451 1450 1449 1448 1447 1446 1445 1443 1443 1441 1440 1439 1438 1437 1436 1434 1433 1432 1430 1429 1427 1426 1424 1423 1421 1420 1418 1417 1415 1413 1412 1410 1408 1406 1405 1403 1402 1400 1399 1398 1397
1470 1469 1469 1469 1468 1468 1468 1467 1467 1466 1465 1465 1464 1463 1463 1462 1461 1461 1460 1459 1458 1457 1456 1455 1454 1453 1452 1451 1450 1449 1448 1447 1446 1445 1444 1443 1442 1440 1439 1438 1437 1436 1434 1433 1432 1431 1429 1428 1426 1425 1423 1422 1421 1419 1418 1416 1414 1412 1410 1409 1407 1405 1403 1401 1400 1399 1397 1395 1394
1468 1468 1468 1468 1467 1467 1466 1466 1465 1465 1464 1463 1463 1462 1462 1461 1460 1459 1458 1458 1457 1456 1455 1454 1453 1452 1451 1450 1449 1448 1448 1446 1445 1444 1443 1442 1441 1440 1438 1437 1436 1435 1433 1432 1431 1430 1428 1427 1425 1424 1423 1421 1420 1419 1417 1415 1413 1411 1409 1408 1406 1404 1402 1399 1398 1397 1395 1393 1392
Wind_Speed
9 9 9 8 8 9 9 10 10 10 10 10 10 9 9 10 10 11 11 12 12 12 12 13 13 13 13 13 13 13 14 14 14 14 14 14 14 14 13 13 14 14 13 13 13 13 13 13 13 13 13 14 15 16 17 18 19 19 20 21 22 23 23 23 24 24 25 25 25
9 9 8 8 8 8 9 9 10 10 10 10 10 10 10 11 11 11 11 12 12 13 13 13 13 13 13 14 14 14 15 15 15 15 15 15 15 15 15 15 15 15 15 15 14 14 14 14 14 14 14 14 15 15 16 16 17 17 18 18 19 20 20 21 22 23 23 24 24
8 8 8 8 8 8 8 8 8 9 9 9 10 10 11 11 11 12 12 12 13 13 13 14 14 14 14 14 14 15 15 16 16 16 16 16 16 16 16 17 16 16 16 16 16 16 15 15 15 15 15 15 16 16 16 16 16 17 17 17 18 18 19 19 20 20 21 21 22
9 9 9 9 8 8 8 8 8 9 9 10 10 11 11 11 12 12 13 13 13 14 14 14 14 14 14 15 15 15 15 16 16 17 17 17 17 17 17 18 18 18 18 18 17 17 17 17 17 17 17 17 18 18 18 17 17 18 18 18 18 19 19 19 19 19 20 20 21
10 10 10 10 10 10 10 10 11 11 11 11 12 12 12 12 13 13 13 14 14 14 14 15 15 15 15 15 15 16 16 16 17 17 17 17 17 18 18 18 19 19 19 19 18 18 19 19 19 19 19 19 20 20 20 19 19 19 19 19 19 20 20 20 20 20 20 20 21
11 12 12 12 12 13 13 13 13 13 13 13 13 13 14 14 14 14 14 15 15 15 15 15 16 16 16 16 16 16 16 16 17 17 18 18 18 18 18 18 19 19 19 19 19 19 19 19 20 20 20 20 20 21 21 20 21 21 21 21 21 21 22 22 22 22 22 22 22
13 13 14 14 14 14 14 14 14 14 14 14 14 14 14 14 14 15 15 15 15 16 16 16 16 16 16 16 17 17 17 17 17 17 18 18 18 18 19 19 19 19 18 18 18 18 19 19 19 20 20 20 20 21 21 21 21 21 22 22 22 23 23 24 24 24 24 24 24
14 14 15 15 15 15 15 15 15 15 15 15 15 15 15 15 15 15 15 15 15 16 16 16 16 16 16 17 17 17 17 17 17 18 18 18 18 19 19 19 19 18 18 18 18 18 18 18 19 19 20 20 20 20 21 21 21 21 22 22 23 24 24 25 25 26 26 26 26
14 15 15 15 15 15 15 15 15 16 16 15 15 15 15 15 15 15 15 15 15 15 15 15 15 16 16 16 16 16 17 17 17 17 17 18 18 18 18 19 18 18 18 18 18 18 18 18 19 19 19 20 20 20 20 20 21 21 22 22 23 23 24 25 26 26 26 27 27
14 14 14 14 15 15 15 15 15 16 16 16 15 15 15 15 15 15 15 15 15 15 15 15 15 15 15 15 15 16 16 16 17 17 17 17 18 18 18 18 19 19 19 19 19 19 19 19 19 19 20 20 20 20 21 21 21 21 22 22 23 23 24 25 25 26 26 27 27
13 13 13 13 13 14 14 15 15 15 15 15 15 15 15 15 15 14 14 14 14 14 14 15 15 15 15 15 15 15 15 16 16 16 17 17 17 18 18 18 19 19 19 19 19 20 20 20 20 20 20 21 21 21 21 22 22 22 23 23 24 24 25 25 26 26 26 27 27
12 12 12 12 12 13 13 13 14 14 15 15 15 15 15 15 14 14 14 14 14 14 14 14 15 15 15 15 15 15 15 15 16 16 17 17 17 17 18 18 19 19 19 19 20 20 20 20 21 21 21 22 22 22 22 23 23 23 24 25 25 26 26 26 27 27 27 27 27
11 11 11 11 11 11 12 12 13 13 13 14 14 14 14 14 14 14 14 14 14 14 14 14 15 15 15 15 15 15 15 16 16 16 17 17 17 18 18 18 19 19 19 19 20 20 21 21 21 21 22 22 23 23 23 23 24 24 25 26 26 26 27 27 27 27 27 27 27
10 10 10 10 10 10 11 11 11 12 12 12 13 13 13 13 14 14 14 14 14 14 14 14 14 15 15 16 16 16 16 16 17 17 17 17 18 18 18 19 19 19 19 20 20 20 21 21 21 22 22 22 23 23 23 24 24 25 26 26 27 27 27 27 28 28 28 28 28
10 10 10 10 10 10 10 10 11 11 12 12 12 12 13 13 13 14 14 14 14 14 14 14 14 15 15 16 16 17 17 17 17 18 18 18 18 18 19 19 19 19 20 20 20 21 21 21 22 22 22 23 23 23 24 24 25 25 26 26 27 27 27 28 28 28 28 29 29
9 9 9 10 10 10 10 11 11 12 12 12 13 13 13 13 14 14 14 14 14 14 14 15 15 15 15 16 16 17 17 18 18 18 18 19 19 19 19 19 20 20 20 20 20 21 21 21 22 22 22 23 23 24 24 25 25 26 26 26 27 27 27 27 27 28 28 29 29
9 9 10 10 10 11 11 12 12 13 13 13 14 14 14 14 14 15 15 15 15 15 15 15 16 16 16 16 17 17 18 18 18 19 19 19 19 19 19 20 20 20 20 20 20 21 21 21 21 22 22 22 23 24 24 25 25 26 26 26 26 26 26 27 27 28 28 29 29
9 10 11 11 11 12 12 13 13 14 14 14 14 15 15 15 15 15 16 16 16 16 16 16 16 17 17 17 17 17 18 18 18 18 19 19 19 19 19 19 20 20 20 20 20 20 21 21 21 21 22 22 23 24 24 25 25 25 25 25 26 26 26 27 27 27 28 28 29
10 11 11 12 12 12 13 13 14 14 14 15 15 15 16 16 16 16 17 17 17 17 17 17 17 17 17 17 17 17 17 18 18 18 18 18 19 19 19 19 19 19 20 20 20 20 20 21 21 21 22 22 23 24 24 25 25 25 25 25 26 26 26 27 27 27 28 28 28
11 11 12 12 12 13 13 13 14 14 15 15 16 16 16 17 17 17 17 17 17 17 17 17 17 17 17 17 17 17 17 17 18 18 18 18 18 19 19 19 19 19 20 20 20 20 21 21 21 22 22 23 24 24 25 25 25 25 25 26 26 26 27 27 27 27 27 27 28
11 12 12 12 12 13 13 13 14 15 15 16 16 16 17 17 17 17 17 17 17 17 17 17 17 17 17 16 16 17 17 17 17 18 18 18 18 19 19 19 19 20 20 20 20 20 21 21 22 22 23 24 24 24 25 25 25 25 26 26 26 26 26 26 26 26 26 27 27
11 12 12 12 12 13 13 14 14 15 15 16 16 16 17 17 17 17 17 17 17 17 17 17 17 17 17 17 17 17 17 17 17 18 18 18 19 19 19 19 20 20 20 20 21 21 21 22 22 23 23 24 24 24 24 25 25 26 26 27 27 27 27 26 26 26 27 27 27
11 12 12 12 12 13 13 14 14 15 15 15 16 16 16 16 16 16 16 17 17 17 17 17 17 17 17 17 17 17 17 17 17 18 18 18 19 19 19 20 20 20 21 21 21 21 22 22 23 23 23 23 23 24 24 25 26 27 27 28 28 28 27 27 27 27 28 28 28
11 11 12 12 12 13 13 14 14 14 15 15 16 16 16 16 16 16 16 16 16 17 17 17 17 17 17 17 17 17 17 17 18 18 18 19 19 19 20 20 20 21 21 21 21 22 22 22 23 23 23 22 23 23 24 25 26 27 28 28 29 29 29 29 29 29 29 29 29
11 11 12 12 12 13 13 13 14 14 15 15 16 16 16 16 16 16 16 16 16 17 17 17 17 17 17 17 17 17 17 17 18 18 18 19 19 20 20 20 21 21 21 21 21 21 21 21 21 21 21 21 22 23 24 25 26 27 28 29 29 30 31 31 31 31 31 31 31
11 11 12 12 12 13 13 13 14 14 15 15 16 16 16 16 16 16 16 16 16 17 17 17 17 17 17 17 17 17 17 17 18 18 19 19 20 20 20 21 21 21 22 22 21 21 21 21 20 20 19 20 21 23 24 26 27 27 28 29 30 31 32 32 32 32 32 32 32
11 11 12 12 12 13 13 13 14 14 15 15 16 16 16 16 16 16 16 16 16 17 17 17 17 17 17 17 17 17 17 18 18 19 19 20 20 21 21 22 22 22 22 22 21 21 21 21 20 19 19 20 21 22 24 26 27 28 29 30 30 31 31 32 32 32 32 32 32
12 12 12 12 12 13 13 13 14 14 15 15 15 16 16 16 16 16 16 16 16 16 17 17 17 17 17 17 17 17 17 18 18 19 20 20 21 21 22 22 22 22 22 22 21 21 21 21 20 19 19 19 20 22 23 25 27 28 29 29 30 30 30 31 31 31 32 32 31
12 12 12 12 12 13 13 13 14 14 14 15 15 16 16 16 16 16 16 16 16 16 17 17 17 17 17 17 17 18 18 18 19 20 20 21 22 22 22 22 22 22 21 21 21 21 20 20 20 19 19 19 20 21 23 25 27 28 28 29 29 29 29 29 30 30 30 31 31
12 12 12 12 13 13 13 13 14 14 14 15 15 15 15 15 15 16 16 16 16 16 17 17 17 17 18 18 18 18 18 19 20 20 21 22 22 23 23 22 22 21 21 21 20 20 20 20 19 19 18 18 20 21 23 25 26 27 27 27 27 28 28 28 29 29 30 30 31
13 13 13 13 13 13 13 13 13 14 14 15 15 15 15 15 15 16 16 16 16 16 17 17 17 17 18 18 18 19 19 20 20 21 22 22 23 23 22 22 21 21 21 21 20 20 20 19 19 18 18 18 20 22 23 25 25 26 26 27 27 27 28 28 29 29 30 30 31
13 13 13 13 13 13 13 13 13 14 14 14 15 15 15 15 15 16 16 16 16 16 17 17 17 17 18 18 19 19 20 21 21 22 22 23 23 23 22 21 21 21 21 21 20 20 19 19 18 18 18 19 20 22 24 24 25 25 26 26 26 27 28 28 29 30 30 31 31
13 13 13 13 13 13 13 13 13 13 14 14 15 15 15 15 15 15 16 16 16 16 17 17 17 18 18 19 19 20 20 21 22 22 22 22 22 22 21 21 21 21 21 21 20 19 19 19 18 18 18 19 21 23 24 25 25 25 26 26 27 27 28 29 30 31 31 32 32
13 13 13 13 13 13 13 13 13 13 14 14 14 15 15 15 15 15 16 16 16 16 17 17 18 18 19 19 20 20 21 21 22 22 22 22 22 22 21 21 21 21 21 20 20 20 19 19 19 19 19 21 22 24 25 25 25 26 26 27 27 28 29 30 31 32 32 32 33
13 13 13 13 13 13 13 13 13 13 14 14 14 14 15 15 15 16 16 16 16 16 17 17 18 18 19 20 20 21 21 22 22 22 22 22 22 21 21 21 21 21 21 20 20 20 20 20 20 20 21 22 23 25 25 26 26 27 27 28 29 30 31 31 32 32 32 33 33
14 13 13 13 13 13 13 13 13 13 13 14 14 14 15 15 15 16 16 16 16 16 17 17 18 18 19 20 20 21 21 21 22 22 22 22 21 21 21 21 21 21 21 21 21 21 21 21 20 21 21 23 24 25 26 27 27 28 29 30 30 31 32 33 33 33 33 33 33
14 14 14 14 13 13 13 13 13 13 14 14 14 14 15 15 15 16 16 16 16 17 17 17 18 18 19 19 20 21 21 21 22 22 21 22 21 21 21 21 21 21 21 21 21 22 22 22 21 21 22 24 25 26 27 28 29 29 30 31 32 33 33 34 34 34 34 34 34
14 14 14 14 14 13 13 13 13 13 14 14 14 15 15 15 16 16 16 16 17 17 17 18 18 19 19 20 20 21 21 21 21 21 21 21 21 21 21 21 21 21 21 22 22 22 23 22 22 22 23 24 25 26 27 28 29 30 31 32 33 34 34 34 35 35 35 35 34
14 14 14 14 14 13 13 13 13 13 14 14 14 15 15 15 16 16 16 16 17 17 18 18 18 19 19 20 20 21 21 21 21 21 21 21 21 21 21 21 21 21 22 22 22 23 23 23 22 22 23 24 24 26 27 28 30 31 32 32 33 34 35 35 35 36 36 36 35
14 14 14 14 14 13 13 13 13 13 14 14 15 15 15 16 16 16 16 16 17 17 18 18 18 19 19 20 20 20 20 20 20 20 20 20 20 20 20 20 21 21 22 22 23 23 23 23 23 23 23 24 24 26 27 28 29 31 32 33 34 35 36 36 36 37 37 37 36
14 14 14 14 14 13 13 13 13 13 14 14 15 15 16 16 16 16 16 16 17 17 17 18 18 19 19 20 20 20 20 20 20 20 20 20 20 20 20 20 21 21 22 23 23 23 24 23 23 23 23 23 24 25 27 28 29 31 33 34 34 35 36 37 37 37 37 38 38
Wind_Direction
346 345 344 344 344 346 348 351 354 356 357 357 358 358 359 359 1 359 356 353 351 351 350 349 349 349 349 348 348 348 347 345 345 345 345 345 345 345 344 343 342 341 340 339 338 337 334 330 327 325 321 316 309 305 301 298 296 294 291 289 288 286 286 286 286 286 285 285 285
341 340 339 339 341 342 345 347 349 351 352 352 352 352 352 353 353 352 349 347 345 344 343 343 343 343 344 344 344 344 343 342 342 341 341 341 340 339 339 337 337 336 335 334 334 333 331 330 329 328 326 322 317 314 312 309 306 304 301 298 295 292 290 289 287 287 287 287 287
340 338 337 337 338 340 342 343 345 346 348 348 348 348 348 348 347 346 344 342 341 340 340 340 340 341 342 342 343 343 342 341 340 339 339 339 338 337 336 335 334 333 332 331 330 329 328 327 326 325 324 322 319 318 317 317 316 315 314 311 307 303 300 296 294 293 293 294 294
342 341 340 340 341 342 343 343 344 345 347 347 347 347 347 346 345 343 341 340 340 339 339 339 340 341 342 342 343 342 341 340 338 338 337 337 337 336 335 334 333 332 331 330 329 328 327 325 324 323 322 321 319 318 318 320 320 321 320 318 315 313 310 307 304 303 303 303 302
343 343 343 343 344 344 345 345 345 346 346 347 347 347 347 346 344 343 341 340 340 340 340 340 340 340 341 341 341 340 339 337 336 335 335 335 335 335 334 333 332 331 331 330 329 327 326 325 323 323 322 321 319 319 319 320 321 321 320 318 316 314 312 311 309 308 307 305 304
343 344 344 344 344 344 343 343 343 343 344 344 344 345 345 343 342 341 340 339 338 338 338 338 338 338 337 337 337 336 336 335 334 333 332 332 332 332 332 331 331 330 329 329 328 327 325 324 323 323 322 322 321 320 321 321 320 319 317 315 313 311 310 309 307 306 304 302 300
341 342 343 343 342 341 341 340 340 339 339 340 340 340 340 339 338 337 336 336 335 335 334 334 334 333 333 333 333 333 333 332 331 331 330 330 330 330 330 329 329 328 328 327 326 325 324 323 322 322 322 322 321 320 320 320 319 317 315 313 311 309 308 307 305 304 303 301 299
339 340 340 339 339 338 337 336 336 335 335 334 334 335 334 333 333 332 331 330 329 329 329 329 328 328 328 329 329 329 329 329 329 329 329 329 329 329 328 328 327 327 327 326 325 325 323 323 322 321 321 321 321 320 319 319 317 316 314 312 310 309 308 307 306 305 304 302 301
337 337 336 335 334 333 332 332 331 330 330 329 328 328 327 326 326 325 324 324 323 322 322 322 322 323 323 324 325 325 326 326 327 327 328 328 328 327 327 326 326 326 326 325 325 324 323 322 322 321 320 320 320 319 318 317 316 314 313 311 310 309 308 307 306 306 305 304 303
334 334 332 331 330 329 328 328 327 326 325 324 323 322 321 320 319 318 318 317 317 316 316 317 317 318 319 320 321 322 323 324 325 326 326 326 326 326 325 324 324 324 324 324 324 323 322 322 321 320 320 319 319 318 317 316 315 314 312 311 311 310 309 308 307 307 306 305 304
331 330 329 328 327 327 326 325 324 322 321 319 318 317 315 314 313 313 313 313 313 313 313 314 315 317 318 319 320 321 322 323 324 325 325 325 324 324 323 323 322 322 322 322 321 321 320 319 319 319 318 317 317 316 315 315 314 313 312 312 311 311 310 309 308 308 307 307 306
329 328 327 327 327 326 326 324 322 320 318 317 315 314 313 312 311 311 311 312 313 314 314 316 317 318 319 320 321 322 323 323 324 324 324 324 323 322 321 320 320 319 319 319 318 318 318 317 317 316 316 315 315 314 314 314 313 313 312 311 311 310 310 309 309 309 308 308 307
328 327 327 328 328 328 327 325 322 320 318 316 315 314 313 312 312 313 313 314 316 317 318 318 319 320 320 321 322 322 323 324 324 324 323 323 322 321 319 318 318 317 317 316 316 316 316 315 315 315 315 314 314 314 314 314 313 312 311 311 310 310 310 310 310 310 310 310 310
328 328 329 330 330 330 329 326 324 321 319 318 317 317 316 316 316 317 318 319 320 321 321 321 321 321 321 322 323 324 324 325 325 324 323 322 321 320 319 318 317 316 316 315 315 315 315 315 315 315 315 315 315 315 314 314 314 313 312 312 311 312 312 312 312 312 312 313 313
327 328 330 331 332 332 331 329 327 326 325 323 323 323 323 322 322 322 323 323 324 324 323 323 323 323 323 323 324 325 325 326 325 325 324 323 322 320 319 319 318 317 317 317 317 317 317 317 317 317 317 317 317 316 316 316 316 315 314 314 314 315 315 315 315 315 315 316 315
326 328 331 333 333 334 333 333 332 332 331 331 331 330 330 329 328 327 326 327 326 327 326 326 325 325 325 326 326 326 326 326 325 325 324 323 322 322 321 320 320 319 319 319 319 319 319 319 319 319 319 319 318 318 317 317 316 315 315 315 316 317 317 317 317 317 317 317 317
329 331 333 334 335 336 337 337 337 337 337 336 336 335 334 333 332 330 329 329 329 329 329 329 328 328 327 327 327 326 326 326 325 325 324 324 323 323 322 322 322 322 321 321 321 321 321 321 320 320 320 320 319 318 318 317 316 315 316 316 317 318 319 319 319 319 319 318 318
333 335 336 337 338 338 339 339 339 339 339 339 338 337 335 334 333 332 331 331 330 331 330 330 329 328 328 327 326 326 325 325 324 324 324 324 324 324 323 323 324 323 323 323 324 323 323 322 322 321 321 320 319 318 317 316 316 317 317 319 319 320 320 320 320 320 319 319 319
337 338 338 338 338 339 339 339 340 340 339 339 338 336 335 334 333 332 331 330 330 329 329 328 327 327 326 326 326 325 325 324 324 324 324 324 324 325 325 325 325 326 326 326 326 325 325 324 323 322 321 320 319 318 317 317 318 319 320 321 321 321 321 321 320 320 319 319 318
338 337 337 336 337 337 338 338 339 339 338 337 336 335 333 332 331 330 329 328 327 326 326 325 325 325 325 325 325 325 325 324 324 325 325 326 326 327 327 327 328 327 328 328 328 327 326 325 324 323 322 320 319 318 318 319 320 321 322 322 321 321 321 320 320 320 319 318 317
336 335 334 334 334 335 336 337 337 337 336 335 333 332 331 330 328 327 326 325 324 324 323 323 324 324 324 325 325 326 326 326 326 326 327 328 328 329 329 329 329 329 329 330 329 329 328 326 325 324 322 321 320 319 320 321 321 322 322 321 321 320 320 320 320 319 318 317 316
332 331 330 330 331 332 334 334 335 334 334 332 331 329 328 327 326 325 324 323 323 323 323 323 324 325 326 326 327 327 327 327 327 328 329 329 330 330 330 330 331 331 331 331 331 330 329 327 326 324 323 322 321 321 321 321 321 321 321 320 320 320 320 320 319 319 318 317 315
327 326 326 327 328 330 331 332 332 332 331 330 328 327 325 324 323 323 323 323 323 323 323 324 325 326 327 328 328 328 328 328 328 329 330 330 331 331 331 331 332 333 333 332 332 331 329 328 326 325 324 323 322 321 321 321 321 321 321 320 320 320 320 320 319 318 317 316 315
323 322 323 324 326 327 328 329 330 329 328 327 326 324 324 322 322 322 322 322 323 323 324 325 326 327 328 328 329 328 328 328 329 330 331 331 331 332 332 332 333 333 333 333 333 332 330 328 326 325 325 325 322 320 319 319 319 320 320 320 320 320 320 320 319 318 316 315 314
319 319 320 322 323 325 326 327 327 327 326 325 324 323 322 322 321 322 322 323 323 324 324 325 326 327 327 328 328 328 328 329 330 331 331 332 332 332 333 333 334 334 334 334 333 332 330 328 327 327 326 324 320 318 317 318 318 318 318 318 318 318 319 318 318 316 315 315 314
317 317 319 320 321 323 323 324 324 324 323 323 322 322 321 321 321 322 322 324 324 325 325 325 326 326 327 328 328 328 329 330 331 332 332 332 333 333 333 334 334 334 334 334 334 332 330 328 328 327 325 321 317 315 316 316 316 316 316 317 317 317 317 317 317 316 315 316 316
315 316 317 318 319 320 321 321 322 322 322 322 321 321 320 320 321 322 323 324 325 325 325 325 326 326 327 328 328 329 330 332 332 333 333 333 333 334 335 335 336 336 336 335 334 332 329 328 328 327 324 319 316 316 316 316 315 315 315 316 316 316 316 317 317 317 318 318 320
314 315 316 317 318 319 319 320 320 321 321 320 320 320 320 320 321 322 323 324 325 325 325 325 326 327 328 329 330 331 332 333 333 334 334 334 334 336 337 337 337 337 337 335 334 331 329 328 328 327 324 321 319 317 316 315 314 314 315 316 316 317 317 318 319 319 320 322 323
314 314 315 316 317 317 318 319 319 319 319 319 319 319 320 320 321 323 324 325 325 325 325 326 327 328 329 330 332 333 334 335 335 335 335 335 336 338 339 339 339 338 337 335 333 332 330 330 329 327 325 323 321 319 315 313 312 314 315 316 317 318 319 320 321 323 324 325 326
313 314 315 315 316 316 316 317 317 318 318 318 319 319 320 321 322 323 325 326 326 327 328 328 329 330 331 332 334 335 336 336 336 336 337 338 339 340 340 340 339 338 337 335 334 333 333 332 330 329 328 326 323 318 314 312 313 315 317 319 320 321 323 324 325 326 327 328 329
312 313 313 314 314 314 314 314 315 316 317 318 319 319 321 322 324 325 326 328 328 329 329 330 331 332 333 334 336 337 338 338 338 338 338 339 340 341 341 340 339 338 337 336 336 336 335 334 332 331 331 329 324 318 314 315 317 319 320 322 323 324 326 327 328 329 330 331 331
311 312 311 311 311 311 311 311 313 315 317 319 320 321 322 324 326 327 328 329 330 330 331 332 332 333 335 337 338 339 339 339 339 339 339 340 341 341 341 340 339 339 339 339 339 339 338 336 334 335 335 331 323 318 318 320 322 323 323 324 326 328 329 331 332 332 333 333 333
309 309 309 308 308 307 308 309 312 315 317 319 320 322 324 326 327 329 330 330 331 332 333 333 334 335 337 338 340 340 340 340 339 339 340 340 341 341 340 340 340 340 341 342 342 341 340 339 338 338 336 330 324 322 323 325 326 326 327 328 329 331 333 334 335 335 335 335 335
307 306 306 305 304 305 306 308 312 315 318 320 322 323 325 327 329 330 331 332 333 334 335 335 336 338 339 340 340 340 339 339 339 339 339 340 340 340 341 341 341 342 343 344 344 344 343 342 342 341 337 331 327 327 328 330 330 330 331 332 333 334 335 336 336 336 336 336 336
304 303 303 302 303 303 305 308 312 315 318 321 323 325 327 329 330 331 332 334 335 336 337 337 338 339 341 341 340 339 339 338 338 338 338 339 339 340 341 342 343 345 346 347 346 345 345 346 345 343 339 333 332 332 333 334 334 335 335 335 335 336 337 337 336 336 335 335 335
302 302 301 301 302 303 305 309 313 316 319 321 324 327 329 331 331 332 333 334 336 337 338 339 339 340 341 340 339 338 337 337 337 338 338 338 339 341 343 344 345 346 347 348 347 347 347 348 347 345 341 337 336 337 337 338 338 338 337 337 337 337 337 337 336 335 335 335 335
301 301 301 301 302 303 306 309 313 316 320 322 325 328 330 332 332 333 334 335 337 338 339 340 340 340 340 340 338 337 336 337 337 337 338 338 340 342 344 345 347 348 348 348 348 348 349 349 349 347 344 342 341 341 341 341 340 339 338 337 336 337 337 336 335 335 335 335 335
300 301 301 301 302 304 306 310 314 317 320 324 327 329 331 332 333 334 334 336 337 338 340 340 341 340 340 339 338 336 336 336 337 337 338 340 341 344 346 347 347 348 348 349 349 349 350 350 351 349 348 347 345 344 342 341 340 339 338 336 336 336 336 335 334 334 334 334 334
300 300 301 301 302 304 307 311 315 318 321 324 327 330 332 332 333 334 335 336 338 339 340 340 340 339 339 338 337 336 336 336 337 338 339 341 343 345 347 348 348 348 348 349 349 350 351 351 352 352 351 350 348 345 343 341 339 338 337 336 335 335 334 334 333 333 333 333 333
299 300 300 301 302 304 307 312 315 319 322 325 328 330 331 332 333 334 335 336 337 338 339 340 339 338 337 336 336 335 335 335 336 338 340 343 345 347 348 348 348 348 349 350 350 351 352 353 354 354 354 353 349 345 342 340 338 337 337 336 335 334 333 332 332 332 332 332 333
298 299 300 300 302 304 307 312 316 319 322 325 328 329 330 331 332 334 335 336 337 337 338 338 337 336 335 334 334 334 334 334 335 337 340 343 346 347 348 348 348 349 349 350 351 352 353 354 355 356 356 354 349 344 342 340 338 337 337 336 335 333 331 330 331 331 332 332 332